KF8ADQ-10 Weather Reports


Display with metric or nautical units.
time (UTC)temp
F
wind
direction
speed
MPH
gust
MPH
rain 1hr
in
rain 24hr
in
rain mn
in
humidity
%
barometer
mb
20260508043007 44 203 0.0 2.0 0.00 0.00 0.00 79 100.9
20260508040006 41 113 0.0 2.0 0.00 0.00 0.00 89 100.9
20260508033007 40 225 0.0 0.0 0.00 0.00 0.00 87 100.9
20260508030006 41 180 0.0 0.0 0.00 0.00 0.00 82 100.9
20260508023006 42 180 0.0 0.0 0.00 0.00 0.00 80 100.9
20260508020006 43 180 0.0 0.0 0.00 0.00 0.00 77 100.9
20260508013006 45 180 0.0 4.0 0.00 0.00 0.00 67 100.9
20260508010006 48 180 0.0 6.0 0.00 0.00 0.00 54 100.8
20260508003006 51 225 0.0 7.0 0.00 0.00 0.00 49 100.8
20260508000013 54 293 0.0 10.0 0.00 0.00 0.00 44 100.8
20260507233005 54 180 0.0 13.0 0.00 0.00 0.00 45 100.8
20260507230005 55 248 0.0 13.0 0.00 0.00 0.00 43 100.8
20260507223006 56 248 0.0 10.0 0.00 0.00 0.00 51 100.8
20260507220006 56 338 0.0 10.0 0.00 0.00 0.00 47 100.7
20260507213006 57 248 0.0 10.0 0.00 0.00 0.00 45 100.7
20260507210006 57 225 0.0 9.0 0.00 0.00 0.00 45 100.7
20260507203006 57 180 0.0 9.0 0.00 0.00 0.00 45 100.7
20260507200006 61 270 0.0 7.0 0.00 0.00 0.00 40 100.7
20260507193006 61 293 0.0 9.0 0.00 0.00 0.00 42 100.7
20260507190006 57 248 0.0 9.0 0.00 0.00 0.00 48 100.7
20260507183007 60 203 0.0 9.0 0.00 0.00 0.00 45 100.7
20260507180006 59 23 0.0 9.0 0.00 0.00 0.00 45 100.7
20260507173006 59 203 0.0 8.0 0.00 0.00 0.00 44 100.7
20260507170006 57 203 0.0 8.0 0.00 0.00 0.00 46 100.8
20260507163007 57 248 0.0 7.0 0.00 0.00 0.00 47 100.8
20260507160006 59 90 0.0 7.0 0.00 0.00 0.00 46 100.8
20260507153006 57 203 0.0 7.0 0.00 0.00 0.00 49 100.8
20260507150006 55 135 0.0 7.0 0.00 0.00 0.00 54 100.8
20260507143006 55 270 0.0 7.0 0.00 0.00 0.00 61 100.8
20260507140006 52 270 0.0 5.0 0.00 0.00 0.00 70 100.8
20260507133007 50 90 0.0 4.0 0.00 0.00 0.00 75 100.9
20260507130006 49 113 0.0 4.0 0.00 0.00 0.00 77 100.9
20260507123006 48 248 0.0 4.0 0.00 0.00 0.00 80 100.9
20260507120006 47 180 0.0 2.0 0.00 0.00 0.00 82 100.9
20260507113006 43 135 0.0 0.0 0.00 0.00 0.00 93 100.9
20260507110009 39 203 0.0 0.0 0.00 0.00 0.00 99 100.8
20260507103007 38 180 0.0 0.0 0.00 0.00 0.00 99 100.8
20260507100006 39 203 0.0 0.0 0.00 0.00 0.00 99 100.8
20260507093006 39 180 0.0 0.0 0.00 0.00 0.00 99 100.8
20260507090006 37 180 0.0 0.0 0.00 0.00 0.00 99 100.8
20260507083006 37 180 0.0 0.0 0.00 0.00 0.00 99 100.8
20260507080006 37 180 0.0 0.0 0.00 0.00 0.00 99 100.8
20260507073006 38 180 0.0 0.0 0.00 0.00 0.00 99 100.9
20260507070010 38 180 0.0 0.0 0.00 0.00 0.00 98 100.9
20260507063006 39 135 0.0 0.0 0.00 0.00 0.00 96 100.9
20260507060007 40 180 0.0 0.0 0.00 0.00 0.00 96 100.9
20260507053007 42 180 0.0 0.0 0.00 0.00 0.00 92 100.9
20260507050006 43 180 0.0 0.0 0.00 0.00 0.00 87 100.9